www.pogodaiklimat.ru

Погода и климат >> Архив погоды >> Австралия >> Новый Южный Уэльс >> Брокен-Хилл аэропорт


ПОГОДА в Брокен-Хилл аэропорту

  • Прогноз погоды в Брокен-Хилл аэропорту
  • Монитор погоды в Брокен-Хилл аэропорту

АРХИВ ПОГОДЫ в Брокен-Хилл аэропорту

Время (UTC), дата Ветер
(напр.,м/с)
 
Видим.   Явления Облачность Т
(С)
Тd
(С)
f
(%)
Тe
(С)
Тes
(С)
Комфортность P
(гПа)
Po
(гПа)
Тmin
(С)
Tmax
(С)
R
(мм)
R24
(мм)
S
(см)
04 9.06 С 6 н/о н/о +16.7 +9.1 61 +16 +16 1018.4 984.7
05 9.06 С 5 н/о 4/4 1000 м
[]
+17.2 +8.4 56 +17 +17 1017.8 984.1
06 9.06 С 5 н/о н/о +17.3 +8.7 57 +17 +17 1017.4 983.7
07 9.06 С 6 н/о н/о +16.9 +8.3 57 +16 +16 1017.0 983.3
08 9.06 С 4 н/о 9/9 600 м
[]
+15.9 +8.9 63 +15 +15 1017.3 983.6
09 9.06 С 4 н/о н/о +15.8 +9.0 64 +15 +15 1017.3 983.6
10 9.06 С 3 н/о н/о +14.9 +8.6 66 +14 +14 1017.4 983.7
11 9.06 СВ 4 н/о н/о +13.1 +8.4 73 +12 +12 1017.0 983.3
12 9.06 С 4 н/о н/о +12.6 +7.9 73 +11 +11 1016.8 983.2
13 9.06 СВ 5 н/о н/о +12.5 +8.0 74 +10 +10 1016.2 982.6
14 9.06 С 5 н/о 4/4 1000 м
[]
+14.1 +7.4 64 +12 +12 1015.9 982.3 +17.8
15 9.06 С 6 н/о н/о +15.2 +9.3 68 +14 +14 1015.8 982.2
16 9.06 С 6 н/о н/о +15.5 +11.1 75 +14 +14 1015.5 981.9
17 9.06 С 7 н/о 1/1 1000 м
[]
+15.9 +11.7 76 +14 +14 1015.4 981.8
18 9.06 С 7 н/о н/о +15.9 +11.9 77 +14 +14 1015.0 981.4
19 9.06 С 6 н/о н/о +16.3 +12.1 76 +15 +15 1014.6 981.0
20 9.06 С 7 н/о 8/0
[]
+16.4 +12.0 75 +15 +15 1015.1 981.5
21 9.06 С 6 н/о н/о +16.3 +12.3 77 +15 +15 1015.9 982.3
22 9.06 С 6 н/о н/о +16.3 +12.5 78 +15 +15 1016.7 983.1
23 9.06 С 7 н/о н/о +17.1 +13.0 77 +16 +16 1017.0 983.3
00 10.06 СЗ 8 н/о н/о +18.1 +13.0 72 +17 +17 1017.4 983.7
01 10.06 СЗ 7 н/о н/о +18.4 +12.8 70 +18 +18 1017.6 983.9
02 10.06 З 7 н/о н/о +19.6 +12.6 64 +21 +21 комфорт 1017.4 983.7 +12.1
03 10.06 З 5 н/о н/о +20.4 +12.1 59 +22 +22 комфорт 1016.6 983.0
04 10.06 З 5 н/о н/о +20.7 +10.8 53 +22 +22 комфорт 1016.3 982.7
05 10.06 З 5 н/о н/о +21.3 +7.5 41 +22 +22 комфорт 1016.5 982.9
06 10.06 З 6 н/о н/о +21.2 +5.9 37 +22 +22 комфорт 1017.0 983.3
07 10.06 СЗ 3 н/о н/о +20.5 +4.5 35 +21 +21 комфорт 1017.6 983.9
08 10.06 СЗ 3 н/о н/о +18.0 +4.2 40 +18 +18 1018.0 984.3
09 10.06 штиль 0 н/о н/о +14.4 +2.9 46 +14 +14 1018.9 985.2
10 10.06 СЗ 1 н/о н/о +11.9 +1.5 49 +13 +13 1019.4 985.7
11 10.06 штиль 0 н/о н/о +12.5 +3.7 55 +12 +12 1020.0 986.2
12 10.06 штиль 0 н/о н/о +13.9 +2.5 46 +14 +14 1020.0 986.2
13 10.06 СВ 1 н/о н/о +9.0 -0.3 52 +10 +10 1020.3 986.5
14 10.06 штиль 0 н/о н/о +9.5 +1.7 58 +9 +9 1020.2 986.4 +21.8
15 10.06 СВ 2 н/о н/о +9.3 +1.5 58 +8 +8 1020.1 986.3
16 10.06 СВ 3 н/о н/о +10.5 +2.1 56 +9 +9 1020.1 986.3
17 10.06 СВ 4 н/о н/о +10.2 +2.1 57 +8 +8 1020.0 986.2
18 10.06 СВ 2 н/о н/о +7.6 +1.7 66 +6 +6 1020.0 986.2
19 10.06 СВ 3 н/о н/о +9.6 +4.8 72 +8 +8 1019.8 986.1
20 10.06 СВ 4 н/о н/о +8.2 +3.1 70 +5 +5 1020.4 986.6
21 10.06 СВ 4 н/о н/о +11.1 +6.3 72 +9 +9 1021.0 987.2
22 10.06 СВ 5 н/о н/о +12.6 +6.4 66 +10 +10 1021.9 988.1
23 10.06 СВ 5 н/о н/о +14.5 +7.3 62 +13 +13 1022.1 988.3
00 11.06 С 3 н/о н/о +17.9 +8.2 53 +18 +18 1022.8 989.0
01 11.06 СВ 5 н/о н/о +20.0 +9.0 49 +21 +21 комфорт 1022.6 988.8
02 11.06 С 5 н/о н/о +22.8 +9.9 44 +25 +25 комфорт 1021.9 988.1 +7.2
03 11.06 С 6 н/о н/о +24.2 +7.8 35 +25 +25 комфорт 1020.9 987.1
04 11.06 С 6 н/о н/о +24.6 +9.3 38 +25 +25 комфорт 1020.2 986.4
05 11.06 С 6 н/о н/о +24.7 +11.6 44 +26 +26 жарко 1019.6 985.9
06 11.06 С 6 н/о н/о +24.4 +12.0 46 +26 +26 жарко 1019.3 985.6
07 11.06 С 6 н/о н/о +24.0 +11.7 46 +26 +26 жарко 1019.5 985.8
08 11.06 С 4 н/о н/о +22.5 +12.2 52 +25 +25 комфорт 1019.7 986.0
09 11.06 С 3 н/о н/о +21.0 +12.2 57 +24 +24 комфорт 1020.3 986.5
10 11.06 С 3 н/о н/о +20.5 +12.2 59 +23 +23 комфорт 1020.5 986.7
11 11.06 СВ 3 н/о н/о +16.8 +11.1 69 +17 +17 1020.7 986.9
12 11.06 СВ 4 н/о н/о +16.5 +11.2 71 +16 +16 1020.6 986.8
13 11.06 СВ 6 н/о н/о +17.0 +11.5 70 +16 +16 1019.8 986.1
14 11.06 С 5 н/о 1/0
[]
+19.7 +10.1 54 +21 +21 комфорт 1019.4 985.7 +25.2
15 11.06 С 6 н/о н/о +20.3 +8.0 45 +21 +21 комфорт 1018.8 985.1
16 11.06 С 7 н/о н/о +20.5 +7.2 42 +21 +21 комфорт 1017.6 983.9
17 11.06 С 7 н/о 5/0
[]
+20.7 +6.6 40 +21 +21 комфорт 1016.5 982.9
18 11.06 С 9 н/о н/о +21.1 +7.0 40 +22 +22 комфорт 1015.9 982.3
19 11.06 С 10 н/о н/о +20.9 +7.2 41 +21 +21 комфорт 1015.1 981.5
20 11.06 С 10 н/о 1/0
[]
+20.6 +6.2 39 +21 +21 комфорт 1014.5 980.9
21 11.06 С 9 н/о н/о +20.4 +6.0 39 +21 +21 комфорт 1015.0 981.4
22 11.06 С 9 н/о н/о +20.3 +5.5 38 +20 +20 1015.5 981.9
23 11.06 С 8 н/о 1/0
[]
+20.9 +5.3 36 +21 +21 комфорт 1016.6 983.0
00 12.06 С 8 н/о н/о +21.7 +5.2 34 +22 +22 комфорт 1017.7 984.0
01 12.06 С 9 н/о н/о +21.1 +6.2 38 +22 +22 комфорт 1017.9 984.2
02 12.06 СЗ 7 н/о 5/5 1000 м
[]
+19.2 +8.5 50 +19 +19 1018.0 984.3 +16.3
03 12.06 З 7 н/о н/о +17.9 +11.7 67 +17 +17 1017.5 983.8
04 12.06 ЮЗ 8 н/о н/о +14.8 +12.8 88 +13 +13 1017.2 983.5
05 12.06 Ю 5 н/о {туман} 10/10 600 м
[]
+14.5 +12.0 85 +13 +13 1017.0 983.3 0.2
06 12.06 Ю 3 н/о н/о +14.3 +12.2 87 +13 +13 1017.3 983.6
07 12.06 штиль 0 н/о н/о +14.0 +12.0 88 +14 +14 1017.4 983.7
08 12.06 С 2 8000 м в посл. час дождь {туман} 10/10 1000 м
[]
+13.5 +11.9 90 +13 +13 1017.6 983.9
09 12.06 С 3 н/о н/о +13.6 +12.3 92 +12 +12 1017.7 984.0
10 12.06 С 3 н/о н/о +14.1 +12.3 89 +13 +13 1018.0 984.3
11 12.06 СЗ 2 н/о в посл. час дождь {туман} 10/10 1500 м
[]
+14.1 +12.3 89 +14 +14 1018.3 984.6 2
12 12.06 СЗ 3 н/о н/о +13.8 +12.0 89 +13 +13 1018.3 984.6
13 12.06 З 4 н/о н/о +13.1 +11.7 91 +11 +11 1018.8 985.1
14 12.06 З 4 н/о {туман} н/о +12.6 +11.3 92 +11 +11 1018.4 984.7 +22.0
15 12.06 З 4 н/о н/о +11.8 +10.7 93 +10 +10 1018.9 985.2
16 12.06 З 3 н/о н/о +11.2 +10.3 94 +9 +9 1018.3 984.6
17 12.06 СЗ 3 н/о в посл. час дождь {туман} н/о +11.0 +10.1 94 +9 +9 1018.3 984.6 0.6
18 12.06 З 3 н/о н/о +10.1 +9.2 94 +8 +8 1018.3 984.6
19 12.06 З 4 н/о н/о +9.6 +8.7 94 +7 +7 1018.8 985.1
20 12.06 З 2 н/о н/о +8.9 +7.8 93 +7 +7 1019.3 985.6
21 12.06 З 3 н/о н/о +8.0 +6.9 93 +5 +5 1020.0 986.2
22 12.06 З 2 н/о н/о +9.0 +8.1 94 +8 +8 1020.6 986.8
23 12.06 штиль 0 н/о {туман} н/о +10.0 +8.6 91 +9 +9 1020.8 987.0 3
00 13.06 ЮЗ 3 н/о н/о +12.8 +9.6 81 +11 +11 1021.3 987.5
01 13.06 ЮЗ 2 н/о н/о +14.9 +9.7 71 +15 +15 1021.2 987.4
02 13.06 ЮЗ 4 н/о 1/1 600 м
[]
+15.7 +7.7 59 +15 +15 1020.9 987.1 +8.0
03 13.06 З 4 н/о н/о +15.8 +6.5 54 +15 +15 1020.3 986.5
04 13.06 З 5 н/о н/о +16.2 +4.9 47 +15 +15 1019.8 986.1
05 13.06 ЮЗ 4 н/о н/о +16.2 +3.9 44 +16 +16 1019.5 985.8
06 13.06 ЮЗ 5 н/о н/о +16.4 +5.4 48 +16 +16 1019.6 985.9
07 13.06 ЮЗ 3 н/о н/о +15.3 +6.1 54 +15 +15 1020.0 986.2
08 13.06 З 3 н/о н/о +13.5 +6.4 62 +12 +12 1020.6 986.8
09 13.06 ЮЗ 2 н/о н/о +11.5 +6.4 71 +10 +10 1020.9 987.1
10 13.06 штиль 0 н/о н/о +11.1 +6.5 73 +11 +11 1021.6 987.8
11 13.06 штиль 0 н/о н/о +10.8 +6.6 75 +10 +10 1021.6 987.8
12 13.06 штиль 0 н/о н/о +10.6 +6.6 76 +10 +10 1021.4 987.6
13 13.06 штиль 0 н/о н/о +9.3 +6.2 81 +9 +9 1021.6 987.8
14 13.06 штиль 0 н/о 1/0
[]
+8.1 +5.6 84 +7 +7 1021.7 987.9 +17.0
15 13.06 штиль 0 н/о н/о +8.1 +5.7 85 +7 +7 1021.5 987.7
16 13.06 СЗ 2 н/о н/о +8.5 +5.4 81 +7 +7 1021.2 987.4
17 13.06 штиль 0 н/о н/о +9.3 +5.7 78 +9 +9 1020.9 987.1
18 13.06 СЗ 3 н/о н/о +10.5 +6.6 77 +9 +9 1021.1 987.3
19 13.06 З 3 н/о н/о +9.6 +6.9 83 +7 +7 1020.7 986.9
20 13.06 З 3 н/о 4/0
[]
+9.4 +7.0 85 +7 +7 1020.6 986.8
21 13.06 З 2 н/о н/о +9.6 +7.0 84 +8 +8 1021.5 987.7
22 13.06 штиль 0 н/о н/о +8.7 +6.5 86 +8 +8 1022.2 988.4
23 13.06 штиль 0 н/о н/о +10.1 +7.2 82 +9 +9 1022.6 988.8
00 14.06 Ю 3 н/о н/о +12.6 +7.7 72 +11 +11 1023.1 989.2
01 14.06 Ю 4 н/о н/о +14.4 +8.4 67 +13 +13 1023.0 989.1
02 14.06 Ю 3 н/о н/о +15.3 +6.1 54 +15 +15 1022.4 988.6 +7.9
03 14.06 ЮЗ 3 н/о н/о +16.6 +5.6 48 +17 +17 1021.6 987.8
04 14.06 ЮЗ 3 н/о н/о +16.7 +3.7 42 +17 +17 1020.8 987.0
05 14.06 ЮЗ 5 н/о 3/3 1500 м
[]
+17.2 +4.2 42 +17 +17 1020.5 986.7
06 14.06 З 4 н/о н/о +16.9 +3.6 41 +17 +17 1020.6 986.8
07 14.06 З 4 н/о н/о +17.0 +3.7 41 +17 +17 1020.6 986.8
08 14.06 ЮЗ 3 н/о 4/4 1500 м
[]
+14.4 +5.0 53 +14 +14 1021.1 987.3
09 14.06 штиль 0 н/о н/о +13.8 +4.9 55 +14 +14 1021.5 987.7
10 14.06 штиль 0 н/о н/о +11.3 +4.7 64 +11 +11 1022.0 988.2
11 14.06 штиль 0 н/о н/о +10.1 +4.5 68 +10 +10 1022.3 988.5
12 14.06 штиль 0 н/о н/о +9.9 +4.3 68 +9 +9 1022.3 988.5
13 14.06 СЗ 3 н/о н/о +10.7 +4.2 64 +9 +9 1022.3 988.5
14 14.06 штиль 0 н/о н/о +8.2 +4.4 77 +8 +8 1022.5 988.7 +18.1
15 14.06 штиль 0 н/о н/о +9.1 +4.7 74 +8 +8 1022.3 988.5
16 14.06 штиль 0 н/о н/о +6.5 +3.7 82 +6 +6 1022.3 988.5
17 14.06 штиль 0 н/о н/о +6.7 +4.4 85 +6 +6 1022.2 988.4
18 14.06 штиль 0 н/о н/о +6.2 +3.5 83 +5 +5 1022.0 988.2
19 14.06 З 1 н/о н/о +6.2 +4.0 86 +6 +6 1022.0 988.2
20 14.06 штиль 0 н/о н/о +6.1 +4.1 87 +5 +5 1022.2 988.4
21 14.06 штиль 0 н/о н/о +7.1 +5.6 90 +6 +6 1022.8 989.0
22 14.06 штиль 0 н/о н/о +7.9 +6.5 91 +7 +7 1023.3 989.4
23 14.06 штиль 0 н/о н/о +9.8 +7.4 85 +9 +9 1023.4 989.5
00 15.06 В 3 н/о н/о +13.9 +8.1 68 +13 +13 1024.0 990.1
01 15.06 ЮВ 4 н/о н/о +15.5 +7.3 58 +15 +15 1023.6 989.7
02 15.06 В 3 н/о 1/1 1500 м
[]
+15.9 +6.3 53 +16 +16 1023.3 989.4 +4.6
03 15.06 ЮВ 2 н/о н/о +15.7 +5.9 52 +16 +16 1022.3 988.5
04 15.06 Ю 3 н/о н/о +16.2 +5.2 48 +16 +16 1021.5 987.7
05 15.06 В 2 н/о 10/10 1000 м
[]
+16.1 +5.4 49 +17 +17 1021.2 987.4
06 15.06 ЮВ 3 н/о н/о +16.1 +5.4 49 +16 +16 1021.0 987.2
07 15.06 ЮВ 5 н/о н/о +15.1 +6.1 55 +14 +14 1021.2 987.4
08 15.06 В 4 н/о 6/0
[]
+14.2 +7.0 62 +13 +13 1021.6 987.8
09 15.06 В 2 н/о н/о +13.2 +7.4 68 +13 +13 1022.1 988.3
10 15.06 З 4 н/о н/о +13.0 +7.5 69 +12 +12 1022.5 988.7
11 15.06 ЮВ 3 н/о 10/0 2000 м
[]
+12.4 +7.9 74 +11 +11 1022.1 988.3
12 15.06 штиль 0 н/о н/о +12.5 +7.6 72 +12 +12 1022.3 988.5
13 15.06 СВ 2 н/о н/о +12.2 +7.3 72 +12 +12 1021.9 988.1
14 15.06 штиль 0 н/о 6/0 2000 м
[]
+10.9 +7.4 79 +10 +10 1021.8 988.0 +16.5
15 15.06 СВ 3 н/о н/о +11.3 +7.2 76 +10 +10 1021.4 987.6
16 15.06 СВ 3 н/о н/о +10.8 +7.1 78 +9 +9 1021.5 987.7
17 15.06 С 3 н/о 10/10 1500 м
[]
+11.5 +6.8 73 +10 +10 1021.7 987.9
18 15.06 Ю 2 н/о н/о +10.3 +6.8 79 +9 +9 1021.4 987.6
19 15.06 штиль 0 н/о н/о +10.6 +7.3 80 +10 +10 1021.2 987.4
20 15.06 штиль 0 н/о 10/0
[]
+10.1 +7.0 81 +9 +9 1021.1 987.3
21 15.06 штиль 0 н/о н/о +10.2 +7.1 81 +10 +10 1021.8 988.0
22 15.06 штиль 0 н/о н/о +10.4 +6.7 78 +10 +10 1022.1 988.3
23 15.06 СВ 2 н/о 10/0 2000 м
[]
+11.2 +6.7 74 +10 +10 1022.6 988.8
00 16.06 СВ 2 н/о н/о +12.2 +6.9 70 +11 +11 1023.3 989.4
02 16.06 СЗ 3 н/о н/о +14.5 +5.8 56 +14 +14 1022.8 989.0 +9.6

 

Местоположение метеостанции Брокен-Хилл аэропорт (Новый Южный Уэльс, Австралия): широта -32.00 долгота 141.46 высота над уровнем моря 282 м.

В архиве по умолчанию представлена погода в Брокен-Хилл аэропорту за последнюю неделю. Архивные данные за месяц целиком и за предыдущие месяцы, начиная с января 2011 года, Вы можете получить, выбрав интересующий диапазон дат из раскрывающегося списка и нажав кнопку "Ввод!".


*Определитесь, кто Вы:
робот инопланетянин человек

Внимание! Время в таблицах - всемирное. Для получения местного времени необходимо прибавить поправку, которая равна 10 ч.

Смотрите также архив погоды в соседних городах и на ближайших метеорологических станциях:

Погода в Фоулерс Гэп (Новый Южный Уэльс, Австралия) (105 км)
Погода в Юнте (Южная Австралия, Австралия) (189 км)
Погода в Уилкании (Новый Южный Уэльс, Австралия) (189 км)
Погода в Уафт Клифс (Новый Южный Уэльс, Австралия) (199 км)
Погода в Милдьюре (Новый Южный Уэльс, Австралия) (255 км)
Погода в Ренмарке (Южная Австралия, Австралия) (255 км)
Погода в Локстоне (Южная Австралия, Австралия) (282 км)
Погода в Айванхо (Новый Южный Уэльс, Австралия) (286 км)
Погода в Тибообере (Новый Южный Уэльс, Австралия) (289 км)
Погода в Ли-Крике (Южная Австралия, Австралия) (328 км)

Пояснения к столбцам:

Ветер - указаны скорость ветра в м/с - средняя за 10 мин, порывы в срок и между сроками (в фигурных скобках) и направление, откуда дует ветер: С - северный, СВ - северо-восточный, В - восточный, ЮВ - юго-восточный, Ю - южный, ЮЗ - юго-западный, З - западный, СЗ - северо-западный.
Видимость - горизонтальная дальность видимости в метрах или километрах. При видимости от 1 до 10 км при отсутствии осадков обычно наблюдается дымка, при ухудшении видимости до 1 км и менее - туман. В сухую погоду видимость может ухудшаться дымом, пылью или мглою.
Явления - указаны атмосферные явления, наблюдавшиеся в срок или в последний час перед сроком; фигурными скобками обозначены явления, наблюдавшиеся между сроками (за 1-3 часа до срока); квадратными скобками обозначены град или гололедные отложения с указанием их диаметра в мм.
Облачность - указаны через наклонную черту общая и нижняя облачность в баллах и высота нижней границы облаков в метрах; квадратными скобками обозначены формы облаков: Ci - перистые, Cs - перисто-слоистые, Cc - перисто-кучевые, Ac - высококучевые, As - высокослоистые, Sc - слоисто-кучевые, Ns - слоисто-дождевые, Cu - кучевые, Cb - кучево-дождевые. Подробнее классификацию облаков см. в Атласе облаков (PDF).
T - Температура воздуха - температура, измеренная на высоте 2 м над землей.
Td - Температура точки росы - температура, при понижении до которой содержащийся в воздухе водяной пар достигнет насыщения.
f - Относительная влажность воздуха - влажноcть воздуха, измеренная на высоте 2 м над землей.
Te - Эффективная температура - температура, которую ощущает одетый по сезону человек в тени. Характеристика душности погоды. При расчете учитывается влияние влажности воздуха и скорости ветра на теплоощущения человека.
Tes - Эффективная температура на солнце - температура, которую ощущает человек, с поправкой на солнечный нагрев. Характеристика знойности погоды. Зависит от высоты солнца над горизонтом, облачности и скорости ветра. Ночью, в пасмурную погоду, а также при ветре 12 м/с и более поправка равна нулю.
P - Атмосферное давление - приведенное к уровню моря атмосферное давление.
Po - Атмосферное давление - измеренное на уровне метеостанции атмосферное давление.
Tmin - Минимальная температура - минимум температуры воздуха на высоте 2 м над землей.
Tmax - Максимальная температура - максимум температуры воздуха на высоте 2 м над землей.
R - Количество осадков - Количество выпавших осадков за период времени, мм. При наведении курсора мыши на число - период времени, за который выпало указанное количество осадков.
R24 - Количество осадков - Количество выпавших осадков за 24 часа, мм.
S - Снежный покров - Высота снежного покрова, см. При наведении курсора мыши на число - состояние снежного покрова и степень покрытия местности в баллах.